Location: Newark
(21.1200°N, 73.4000°E)
Time: 03:39:52
(UTC+00:00)

Courier 1B Rocket - Pass Details

Date: 18 January 2020
Orbit: 920 x 1202 km, 28.2° (Epoch: 17 February)

Event Time Altitude Azimuth Distance (km) Brightness Sun altitude
Rises 06:51:54 0° 226° (SW) 3,868 8.5 47.8°
Reaches altitude 10° 06:54:55 10° 219° (SW) 2,866 8.0 47.9°
Maximum altitude 07:01:17 39° 153° (SSE) 1,470 7.8 48.1°
Drops below altitude 10° 07:07:15 10° 86° (E) 2,691 7.4 48.2°
Sets 07:10:00 0° 78° (ENE) 3,607 7.9 48.2°
